Regional Weather Roundup
Issued by NWS

Home | Current Version | Previous Version | Text Only | Print | Product List | Glossary On
Versions: 1 2 3 4 5 6 7 8 9 10 11 12 13 14 15 16 17 18 19 20 21 22 23 24 25 26 27 28 29 30 31 32 33 34 35 36 37 38 39 40 41 42 43 44 45 46 47 48 49 50
000
ASUS43 KMKX 220600
RWRWI

WISCONSIN REGIONAL WEATHER ROUNDUP
NATIONAL WEATHER SERVICE MILWAUKEE/SULLIVAN WI
100 AM CDT THU JUN 22 2017

NOTE: "FAIR" INDICATES FEW OR NO CLOUDS BELOW 12,000 FEET WITH NO
SIGNIFICANT WEATHER AND/OR OBSTRUCTIONS TO VISIBILITY.

WIZ001-002-006>008-014>016-023>028-220700-
NORTHWEST WISCONSIN

CITY           SKY/WX    TMP DP  RH WIND       PRES   REMARKS
SUPERIOR ARPT  NOT AVBL
ASHLAND        CLOUDY    53  50  89 N7        29.70F
6HR MIN TEMP:  53; 6HR MAX TEMP:  67;

HAYWARD        CLOUDY    67  57  70 SW5       29.70F
6HR MIN TEMP:  66; 6HR MAX TEMP:  74;

SIREN          CLOUDY    68  58  70 SW7       29.68S
CUMBERLAND     CLOUDY    63  55  77 S9        29.72F
RICE LAKE      CLOUDY    68  56  66 SE8       29.74F
6HR MIN TEMP:  68; 6HR MAX TEMP:  76;

CHETEK         CLOUDY    67  59  74 S5        29.74F
LADYSMITH      CLOUDY    65  56  74 S6        29.77F
EAU CLAIRE     NOT AVBL
MENOMONIE      CLOUDY    67  58  73 CALM      29.73F
6HR MIN TEMP:  67; 6HR MAX TEMP:  76;

NEW RICHMOND   CLOUDY    67  58  75 CALM      29.74F
OSCEOLA        CLOUDY    68  60  74 SE8       29.73F
$$

WIZ003>005-009-010-017-018-220700-
NORTH CENTRAL WISCONSIN

CITY           SKY/WX    TMP DP  RH WIND       PRES   REMARKS
MANITOWISH WTR CLOUDY    64  55  75 S6        29.77S
ARBOR VITAE    CLOUDY    64  56  73 S9        29.76F
WOODRUFF       CLOUDY    64  56  73 S9        29.76F
RHINELANDER    CLOUDY    63  55  75 S7        29.77F
6HR MIN TEMP:  62; 6HR MAX TEMP:  73;

EAGLE RIVER    CLOUDY    62  52  71 S5        29.76F
LAND O LAKES   MOCLDY    64  54  70 S6        29.78F
6HR MIN TEMP:  61; 6HR MAX TEMP:  74;

PHILLIPS       CLOUDY    64  56  76 S9        29.74F
TOMAHAWK       NOT AVBL
MEDFORD        CLOUDY    64  56  77 CALM      29.79S
MERRILL        PTCLDY    64  57  76 CALM      29.78F
6HR MIN TEMP:  64; 6HR MAX TEMP:  74;

$$

WIZ029-030-035-036-043>047-220700-
CENTRAL WISCONSIN

CITY           SKY/WX    TMP DP  RH WIND       PRES   REMARKS
WAUSAU         CLOUDY    66  56  70 S9        29.77F
6HR MIN TEMP:  65; 6HR MAX TEMP:  74;

MOSINEE        CLOUDY    63  55  77 SE6       29.80F
MARSHFIELD     MOCLDY    64  56  75 S7        29.76F
6HR MIN TEMP:  64; 6HR MAX TEMP:  73;

STEVENS POINT  MOCLDY    64  58  81 S10       29.80F
WAUPACA        HVY RAIN  64  62  92 E6        29.81S VSB 1
6HR MIN TEMP:  64; 6HR MAX TEMP:  76;

WAUTOMA        CLOUDY    66  58  75 E5        29.79F THUNDER
6HR MIN TEMP:  64; 6HR MAX TEMP:  75;

WISC RAPIDS    MOCLDY    64  61  90 E5        29.78F
6HR MIN TEMP:  63; 6HR MAX TEMP:  75; 6HR PCP:  0.04;

CAMP DOUGLAS   NOT AVBL
$$

WIZ011>013-019>022-031-037>040-048>050-220700-
NORTHEAST WISCONSIN

CITY           SKY/WX    TMP DP  RH WIND       PRES   REMARKS
ANTIGO         CLOUDY    62  56  81 S12       29.81F
SHAWANO        CLOUDY    66  55  67 CALM      29.79F
OCONTO         CLOUDY    65  51  60 SE6       29.80F
STURGEON BAY     N/A     62  49  62 S7          N/A
6HR MIN TEMP:  61; 6HR MAX TEMP:  67;

GREEN BAY      CLOUDY    66  52  60 S8        29.80F
6HR MIN TEMP:  65; 6HR MAX TEMP:  75; 6HR PCP: TRACE;

MANITOWOC      CLOUDY    63  54  72 S10       29.84F THUNDER
APPLETON       CLOUDY    63  54  72 S13       29.81F
CLINTONVILLE   CLOUDY    64  55  72 SE5       29.78F
OSHKOSH        CLOUDY    63  57  81 N7        29.81S THUNDER
6HR MIN TEMP:  63; 6HR MAX TEMP:  74; 6HR PCP:  0.03;

$$

WIZ032>034-041-042-053>061-220700-
SOUTHWEST WISCONSIN

CITY           SKY/WX    TMP DP  RH WIND       PRES   REMARKS
LA CROSSE      MOCLDY    72  63  73 S10       29.72F
6HR MIN TEMP:  72; 6HR MAX TEMP:  77;

SPARTA         CLOUDY    67  60  78 CALM      29.77F
VIROQUA        CLOUDY    68  64  86 SE12      29.78F
BOSCOBEL       CLEAR     69  64  84 CALM      29.76F
6HR MIN TEMP:  68; 6HR MAX TEMP:  77;

PRAIRIE DU CHI CLEAR     72  64  75 SE6       29.76F
PLATTEVILLE    CLOUDY    70  67  89 S9        29.81F
$$

WIZ056-057-062-063-064-067-068-220700-
SOUTH CENTRAL WISCONSIN

CITY           SKY/WX    TMP DP  RH WIND       PRES   REMARKS
REEDSBURG      CLOUDY    69  61  75 S7        29.77F
6HR MIN TEMP:  68; 6HR MAX TEMP:  74;

BARABOO/DELLS  CLOUDY    70  59  68 S12       29.78F
LONE ROCK      NOT AVBL
MINERAL POINT  CLOUDY    70  64  83 SE12      29.81F
MADISON        CLOUDY    69  59  70 S10       29.80F
6HR MIN TEMP:  68; 6HR MAX TEMP:  75;

MIDDLETON      CLOUDY    71  60  66 SE3       29.81F
WATERTOWN      CLOUDY    64  58  81 SE6       29.82F
MONROE         PTCLDY    68  61  77 S8        29.83F
JANESVILLE     CLEAR     64  63  94 SE6       29.83F
$$

WIZ051-052-058>065-066-070>072-220700-
SOUTHEAST WISCONSIN

CITY           SKY/WX    TMP DP  RH WIND       PRES   REMARKS
MILWAUKEE      PTCLDY    66  58  75 S8        29.83F
6HR MIN TEMP:  65; 6HR MAX TEMP:  68;

WAUKESHA       PTCLDY    63  52  67 S9        29.85F
MILWAUKEE/TIMM PTCLDY    64  50  59 S7        29.85F
RACINE         PTCLDY    66  58  75 S9        29.86F
6HR MIN TEMP:  64; 6HR MAX TEMP:  69;

KENOSHA        CLOUDY    65  59  81 S6        29.85F
6HR MIN TEMP:  65; 6HR MAX TEMP:  70;

FOND DU LAC    CLOUDY    66  53  63 S12       29.79F
6HR MIN TEMP:  66; 6HR MAX TEMP:  75;

SHEBOYGAN      CLOUDY    64  56  75 S8        29.82F
6HR MIN TEMP:  63; 6HR MAX TEMP:  69;

WEST BEND      CLOUDY    63  52  67 CALM      29.84F
JUNEAU         CLOUDY    64  56  74 SE10      29.83F
$$

LSZ147-162-220700-
LAKE SUPERIOR

STATION/POSITION TIME  TEMP    WIND        PRES    WAVE
                       AIR SEA DIR/SP/G            HT/PER
                 (UTC) (F)     (DEG/KT/KT) (MB)    (FT/S)
W MID LAKE BUOY  0450   43 39   30/  6/  8 1007.6R   0
DEVILS ISLAND    0500   49      30/ 11/ 13 1006.7F
SAXON HARBOR     0530   61      CALM  /  2 1005.4F
$$

LMZ867-665-643>646-220700-
LAKE MICHIGAN

STATION/POSITION TIME  TEMP    WIND        PRES    WAVE
                       AIR SEA DIR/SP/G            HT/PER
                 (UTC) (F)     (DEG/KT/KT) (MB)    (FT/S)
CHAMBERS ISLAND  0540   64     140/  4/ 10 1008.8F
N MID LAKE BUOY  0450   58 55  170/ 10/ 12 1011.9F
NORTHPORT PIER   0540   63     150/  6/  9 1010.2F
KEWAUNEE LAKESHO 0530   55     150/  4/  6 1010.2F
SHEBOYGAN LAKESH 0500   61     180/ 14/ 14 1010.6F
PORT WASHINGTON  0530   58     200/  2/  3 1011.5F
ATWATER BUOY     0409   59 53  160/  6/  6 1012.1F
MILWAUKEE LAKESH 0530   60     180/  5/  6   N/A
S MID LAKE BUOY  0450   65 61  100/  8/  8 1012.2F   0
KENOSHA   LAKESH 0500   62     160/  6/  6 1011.5
$$

TC  - TEMPERATURE IN CELSIUS
VSB - VISIBILITY IN STATUTE MILES
WCI - WIND CHILL INDEX
HX  - HEAT INDEX





USA.gov is the U.S. government's official web portal to all federal, state and local government web resources and services.